Printer-friendly version

IAU Minor Planet Center

Minor Planet Center

MPEC 2004-Q03 : 2004 PP97

The following Minor Planet Electronic Circular may be linked-to from your own Web pages, but must not otherwise be redistributed electronically.


Read MPEC 2004-Q02 Read MPEC 2004-Q04


M.P.E.C. 2004-Q03                                Issued 2004 Aug. 16, 12:12 UT

     The Minor Planet Electronic Circulars contain information on unusual
         minor planets and routine data on comets.  They are published
   on behalf of Commission 20 of the International Astronomical Union by the
          Minor Planet Center, Smithsonian Astrophysical Observatory,
                          Cambridge, MA 02138, U.S.A.

                  Supported in part by the Brinson Foundation
             Prepared using the Tamkin Foundation Computer Network

                              MPC@CFA.HARVARD.EDU
          URL http://cfa-www.harvard.edu/iau/mpc.html  ISSN 1523-6714

                                   2004 PP97

Observations:
     K04P97P* C2004 08 15.47006 21 38 58.38 -48 05 56.6          20.4 R EQ003E12
     K04P97P  C2004 08 15.48275 21 38 56.22 -48 05 59.1          19.0 R EQ003E12
     K04P97P  C2004 08 15.49398 21 38 54.38 -48 05 58.9          17.8 R EQ003E12
     K04P97P  C2004 08 15.50519 21 38 52.67 -48 06 01.4          19.9 R EQ003E12
     K04P97P  C2004 08 15.51787 21 38 50.57 -48 06 03.5          19.1 R EQ003E12
     K04P97P  C2004 08 15.51881 21 38 50.44 -48 06 04.1          19.4 R EQ003E12
     K04P97P  C2004 08 15.51975 21 38 50.20 -48 06 03.4          19.0 R EQ003E12
     K04P97P  C2004 08 15.52067 21 38 50.14 -48 06 04.3          19.5 R EQ003E12
     K04P97P  C2004 08 15.56573 21 38 42.73 -48 06 09.6          19.2 R EQ003E12
     K04P97P  C2004 08 15.56903 21 38 42.22 -48 06 10.8          19.2 R EQ003E12
     K04P97P  C2004 08 15.57234 21 38 41.64 -48 06 11.3          18.7 R EQ003E12
     K04P97P  C2004 08 15.57565 21 38 41.13 -48 06 11.1          19.4 R EQ003E12
     K04P97P  C2004 08 15.69847 21 38 20.85 -48 06 24.5          18.8 R EQ003E12
     K04P97P  C2004 08 15.70369 21 38 20.17 -48 06 24.6          19.6 R EQ003E12
     K04P97P  C2004 08 15.70894 21 38 19.24 -48 06 24.7          19.7 R EQ003E12
     K04P97P  C2004 08 15.71418 21 38 18.43 -48 06 25.0          19.6 R EQ003E12
     K04P97P VC2004 08 16.42566 21 36 27.61 -48 07 31.9          19.3 R EQ003E12
     K04P97P VC2004 08 16.44653 21 36 24.30 -48 07 34.3          20.4 R EQ003E12
     K04P97P "C2004 08 16.44819 21 36 23.12 -48 07 45.6          18.7 R EQ003568
     K04P97P "C2004 08 16.45171 21 36 22.54 -48 07 45.7          18.7 R EQ003568
     K04P97P VC2004 08 16.45698 21 36 22.54 -48 07 36.9          19.7 R EQ003E12

Observer details:
568 Mauna Kea.  Observers J. Pittichova, J. Bedient.  2.2-m reflector + CCD.
E12 Siding Spring Survey.  Observers R. H. McNaught, G. J. Garradd, S. Larson,
    E. Beshore, E. Christensen, R. Hill, D. McLean.  0.5-m Uppsala Schmidt
    + CCD.

Orbital elements:
2004 PP97
Epoch 2004 Aug. 3.0 TT = JDT 2453220.5                  MPC
M 230.13120              (2000.0)            P               Q
n   0.60021652     Peri.   80.40787     -0.19749144     -0.97570358
a   1.3918660      Node    21.69675     +0.76829159     -0.21415884
e   0.2834682      Incl.   14.86889     +0.60887204     -0.04624399
P   1.64           H   18.3           G   0.15
From 21 observations 2004 Aug. 15-16.

Ephemeris:
2004 PP97                a,e,i = 1.39, 0.28, 15                  q = 0.9973
Date    TT    R. A. (2000) Decl.     Delta      r     Elong.  Phase     V
2004 08 13    21 45.42   -47 58.3    0.731    1.672   146.6    19.5    19.7
2004 08 23    21 19.34   -47 58.2    0.728    1.647   142.0    22.2    19.8
2004 09 02    20 56.43   -46 38.9    0.741    1.619   134.8    26.3    19.9
2004 09 12    20 40.27   -44 17.9    0.769    1.589   126.5    30.6    20.1
2004 09 22    20 32.01   -41 18.7    0.806    1.556   118.2    34.6    20.2
2004 10 02    20 30.96   -38 00.4    0.850    1.522   110.3    38.1    20.4
2004 10 12    20 35.76   -34 33.5    0.897    1.485   103.0    40.9    20.5
2004 10 22    20 45.13   -31 02.2    0.945    1.446    96.4    43.1    20.6
2004 11 01    20 57.97   -27 27.1    0.991    1.406    90.3    44.9    20.7
2004 11 11    21 13.46   -23 47.0    1.034    1.365    84.8    46.3    20.8
2004 11 21    21 31.04   -19 59.8    1.072    1.322    79.8    47.3    20.8
2004 12 01    21 50.28   -16 03.8    1.104    1.279    75.2    48.2    20.9
2004 12 11    22 10.94   -11 57.5    1.129    1.236    71.2    48.9    20.9
2004 12 21    22 32.91   -07 39.6    1.148    1.194    67.6    49.6    20.8
2004 12 31    22 56.15   -03 10.1    1.159    1.153    64.5    50.3    20.8
2005 01 10    23 20.79   +01 30.6    1.162    1.115    61.9    51.1    20.8
2005 01 20    23 47.06   +06 21.1    1.159    1.080    59.9    52.0    20.7
2005 01 30    00 15.29   +11 18.4    1.149    1.050    58.3    53.0    20.7
2005 02 09    00 46.00   +16 17.6    1.135    1.026    57.3    54.1    20.6
2005 02 19    01 19.84   +21 11.8    1.116    1.008    56.9    55.2    20.6
2005 03 01    01 57.54   +25 50.1    1.095    0.999    57.0    56.2    20.5
2005 03 11    02 39.83   +29 58.1    1.075    0.998    57.5    57.1    20.5
2005 03 21    03 27.13   +33 17.7    1.059    1.005    58.5    57.6    20.5
2005 03 31    04 18.98   +35 28.6    1.048    1.020    59.7    57.7    20.5
2005 04 10    05 13.82   +36 13.7    1.046    1.043    61.2    57.3    20.6
2005 04 20    06 09.06   +35 26.0    1.056    1.071    62.6    56.4    20.6
2005 04 30    07 01.90   +33 11.6    1.077    1.105    63.9    55.0    20.7
2005 05 10    07 50.46   +29 48.6    1.112    1.142    64.9    53.2    20.8
2005 05 20    08 34.07   +25 39.5    1.160    1.183    65.6    51.2    20.9
2005 05 30    09 12.94   +21 05.7    1.219    1.224    65.8    49.0    21.0
2005 06 09    09 47.79   +16 23.4    1.290    1.267    65.5    46.8    21.1
2005 06 19    10 19.43   +11 43.5    1.369    1.310    64.7    44.5    21.3
2005 06 29    10 48.57   +07 12.8    1.455    1.353    63.5    42.3    21.4
2005 07 09    11 15.87   +02 54.8    1.547    1.395    61.9    40.0    21.6
2005 07 19    11 41.84   -01 09.1    1.643    1.435    60.0    37.8    21.7
2005 07 29    12 06.88   -04 58.4    1.741    1.474    57.7    35.6    21.8

Timothy B. Spahr             (C) Copyright 2004 MPC           M.P.E.C. 2004-Q03

Read MPEC 2004-Q02 Read MPEC 2004-Q04


Our Web policy. Index to the CBAT/MPC/ICQ pages.


Valid HTML 4.01!